Hourly Data Report for July 02, 2006

TORONTO CITY
ONTARIO

43°40'00.000" N
79°24'00.000" W
112.50 m
6158355
71508
XTO

Download Data

Hourly Data (July 2006)
Hourly Data Report for July 2, 2006
TIME
LST
Temp Definition
°C
Dew Point Definition
°C
Rel Hum Definition
%
Precip. Amount Definition
mm

Wind Dir Definition
10's deg

Wind Spd Definition
km/h
Visibility Definition
km
Stn Press Definition
kPa
Hmdx Definition


Wind Chill Definition


Weather Definition


00:00 22.0 19.5 86   LegendMM LegendMM   99.47 29   LegendNANA
01:00 23.6 20.3 82   LegendMM LegendMM   99.41 31   LegendNANA
02:00 25.4 19.5 70   LegendMM LegendMM   99.37 33   LegendNANA
03:00 25.7 19.1 67   LegendMM LegendMM   99.38 33   LegendNANA
04:00 25.0 19.2 70   LegendMM LegendMM   99.45 32   LegendNANA
05:00 24.5 19.3 73   LegendMM LegendMM   99.47 32   LegendNANA
06:00 24.3 19.3 74   LegendMM LegendMM   99.60 31   LegendNANA
07:00 25.6 20.2 72   LegendMM LegendMM   99.64 33   LegendNANA
08:00 26.1 20.5 71   LegendMM LegendMM   99.65 34   LegendNANA
09:00 27.0 21.4 71   LegendMM LegendMM   99.64 36   LegendNANA
10:00 28.8 20.1 59   LegendMM LegendMM   99.64 36   LegendNANA
11:00 29.7 18.9 52   LegendMM LegendMM   99.66 36   LegendNANA
12:00 30.3 19.1 51   LegendMM LegendMM   99.64 37   LegendNANA
13:00 31.3 18.4 46   LegendMM LegendMM   99.67 38   LegendNANA
14:00 30.4 17.6 46   LegendMM LegendMM   99.71 36   LegendNANA
15:00 29.7 17.0 46   LegendMM LegendMM   99.77 35   LegendNANA
16:00 29.1 17.3 49   LegendMM LegendMM   99.83 35   LegendNANA
17:00 28.7 18.3 53   LegendMM LegendMM   99.83 35   LegendNANA
18:00 28.1 18.4 56   LegendMM LegendMM   99.85 34   LegendNANA
19:00 27.6 18.3 57   LegendMM LegendMM   99.90 34   LegendNANA
20:00 27.1 18.3 59   LegendMM LegendMM   99.94 33   LegendNANA
21:00 25.3 18.1 64   LegendMM LegendMM   100.03 31   LegendNANA
22:00 24.3 18.5 70   LegendMM LegendMM   100.06 31   LegendNANA
23:00 22.5 17.8 75   LegendMM LegendMM   100.10 28   LegendNANA

Notes on Data Quality.

Legend

  • E = Estimated
  • M = Missing
  • NA = Not Available*
  • [empty] = Indicates an unobserved value
Date modified: